Home > Weather > Tirana > Past weeks

Flag for Albania Past Weather in Tirana, Albania — Yesterday and Last 2 Weeks

Now
70 °F

Clear.


Feels Like: 70 °F
Forecast: 62 / 91 °F
Wind: 2 mph from North

Location: Tirana Airport

Current Time: Aug 26, 2016 at 5:37:23 AM

Latest Report: Aug 26, 2016 at 4:50 AM


Visibility: 10 mi

Pressure: 29.98 "Hg

Humidity: 69%

Dew Point: 59 °F

Location of TiranaLocation

Past Weather in Tirana — Graph

°F

Tirana Temperature Yesterday

Maximum temperature yesterday: 97 °F (at 3:20 PM)
Minimum temperature yesterday: 64 °F (at 3:20 AM)
Average temperature yesterday: 81 °F

High & Low Weather Summary for the Past Weeks

 TemperatureHumidityPressure
High97 °F (Aug 25, 3:20 PM)100% (Aug 17, 6:50 AM)30.15 "Hg (Aug 17, 6:50 AM)
Low55 °F (Aug 13, 5:50 AM)17% (Aug 13, 2:20 PM)29.80 "Hg (Aug 18, 4:50 AM)
Average75 °F61%29.96 "Hg
* Reported Aug 11 4:20 AM — Aug 26 4:20 AM, Tirana, Weather by CustomWeather, © 2016

Note: Actual official high and low records may vary slightly from our data, if they occured in-between our weather recording intervals... More about our weather records

Advertising

Tirana Weather History for the Previous 24 Hours

Scroll right to see more
 ConditionsComfort  
Time TempWeatherWind HumidityBarometerVisibility
4:20 AM
Fri, Aug 26
72 °FClear.2 mph65%29.98 "Hg10 mi
3:50 AM72 °FClear.2 mph61%29.98 "Hg10 mi
3:20 AM75 °FClear.2 mph54%29.95 "Hg10 mi
2:50 AM75 °FPassing clouds.6 mph54%29.95 "HgN/A
2:20 AM77 °FPassing clouds.3 mph54%29.95 "HgN/A
1:50 AM81 °FPassing clouds.6 mph39%29.95 "HgN/A
1:20 AM79 °FPassing clouds.2 mph45%29.95 "HgN/A
12:50 AM79 °FPassing clouds.3 mph48%29.95 "HgN/A
12:20 AM79 °FPassing clouds.2 mph48%29.95 "HgN/A
11:50 PM
Thu, Aug 25
82 °FPassing clouds.3 mph42%29.95 "HgN/A
11:20 PM82 °FPassing clouds.6 mph35%29.95 "HgN/A
10:50 PM82 °FPassing clouds.3 mph35%29.95 "HgN/A
10:20 PM86 °FPassing clouds.10 mph31%29.95 "HgN/A
9:50 PM82 °FPassing clouds.5 mph37%29.95 "HgN/A
9:20 PM82 °FClear.7 mph37%29.95 "Hg10 mi
8:50 PM79 °FClear.7 mph45%29.92 "Hg10 mi
8:20 PM79 °FSunny.6 mph45%29.92 "Hg10 mi
7:50 PM82 °FSunny.8 mph40%29.89 "Hg10 mi
7:20 PM88 °FPassing clouds.1 mph38%29.89 "HgN/A
6:50 PM90 °FPassing clouds.3 mph33%29.89 "HgN/A
6:20 PM93 °FScattered clouds.5 mph26%29.89 "HgN/A
5:50 PM91 °FScattered clouds.6 mph34%29.89 "HgN/A
5:20 PM93 °FScattered clouds.9 mph28%29.89 "HgN/A
4:50 PM91 °FScattered clouds.8 mph30%29.89 "HgN/A
4:20 PM93 °FScattered clouds.6 mph26%29.89 "HgN/A
3:50 PM95 °FScattered clouds.6 mph20%29.89 "HgN/A
3:20 PM97 °FScattered clouds.6 mph22%29.89 "HgN/A
2:50 PM95 °FScattered clouds.6 mph28%29.89 "HgN/A
2:20 PM93 °FScattered clouds.9 mph30%29.89 "HgN/A
1:50 PM91 °FScattered clouds.7 mph30%29.92 "HgN/A
1:20 PM90 °FScattered clouds.9 mph29%29.92 "HgN/A
12:50 PM93 °FPassing clouds.5 mph30%29.92 "HgN/A
12:20 PM93 °FPassing clouds.5 mph30%29.92 "HgN/A
11:50 AM91 °FPassing clouds.5 mph32%29.92 "HgN/A
11:20 AM90 °FPassing clouds.5 mph33%29.95 "HgN/A
10:50 AM90 °FPassing clouds.3 mph31%29.95 "HgN/A
10:20 AM88 °FSunny.2 mph38%29.95 "Hg10 mi
9:50 AM86 °FPassing clouds.No wind43%29.95 "HgN/A
9:20 AM81 °FScattered clouds.1 mph45%29.95 "HgN/A
8:50 AM79 °FSunny.1 mph54%29.95 "Hg10 mi
8:20 AM75 °FSunny.1 mph61%29.95 "Hg10 mi
7:50 AM72 °FSunny.1 mph69%29.95 "Hg10 mi
7:20 AM68 °FSunny.2 mph78%29.95 "Hg10 mi
6:50 AM66 °FPassing clouds.3 mph83%29.95 "HgN/A
6:20 AM64 °FPassing clouds.3 mph83%29.92 "HgN/A
5:50 AM64 °FClear.3 mph78%29.92 "Hg10 mi
5:20 AM64 °FClear.2 mph83%29.92 "Hg10 mi
Weather by CustomWeather, © 2016

See weather overviewHow to use our weather pages